Location: Eaton Estates
(41.3089°N, 82.0057°W)
Time: 11:39:31
(UTC+00:00)

Cosmos 2123 Rocket - Pass Details

Date: 25 October 2021
Orbit: 961 x 992 km, 82.9° (Epoch: 29 November)

Event Time Altitude Azimuth Distance (km) Brightness Sun altitude
Rises 10:54:44 0° 139° (SE) 3,676 7.8 -11.3°
Reaches altitude 10° 10:58:04 10° 121° (ESE) 2,738 7.5 -10.7°
Maximum altitude 11:02:04 18° 81° (E) 2,224 7.1 -9.9°
Drops below altitude 10° 11:06:05 10° 41° (NE) 2,758 6.8 -9.2°
Sets 11:09:27 0° 24° (NNE) 3,715 7.2 -8.5°
